User: anonymous   Login
Location: Unspecified
(0.0000°N, 0.0000°E)
Time: 11:56:52
(UTC+00:00)
Language:

Courier 1B - Orbit

View from above orbital plane
View from above orbital plane
View from above satellite
View from above satellite

Ground track
Ground track

The orbit data is extracted from the following two-line orbital elements,

1 00058U 60013A   21022.76047226  .00000079  00000-0 -54525-5 0  9997
2 00058  28.3283  62.0260 0165099  84.9270 277.0096 13.46325304968192
Epoch (UTC): 22 January 2021 18:15:04
Eccentricity: 0.0165099
inclination: 28.3283°
perigee height: 962 km
apogee height: 1209 km
right ascension of ascending node: 62.0260°
argument of perigee: 84.9270°
revolutions per day: 13.46325304
mean anomaly at epoch: 277.0096°
orbit number at epoch: 96819

The dashed part of the orbit path shows where the satellite is in the earth's shadow,  

DLR